Weather in Ketrysanivka

Ukraine / Kirovohrad Region     47°54′39″N   32°10′09″E
temp.,
°C
wind,
m/s
gust,
m/s
humid.,
%
clouds,
%
prec.,
mm/h
press.,
hPa
HPBL,
m
17 april, sat
sat1700:00+4wsw6996100 0.3 1016911
03:00+5w698790 0.6 1017644
06:00+2wsw4109315 0.0 1019288
09:00+7w610705 0.0 1020706
12:00+11wsw795475 0.0 10201677
15:00+10w5656100 0.0 10201208
18:00+11wnw2356100 0.0 10201004
21:00+9nne2268100 0.0 102041
18 april, sun
sun1800:00+7ene1173100 0.0 101913
03:00+6e117973 0.0 101910
06:00+5ssw227756 0.0 101914
09:00+9sw235697 0.0 1019390
12:00+13sw334789 0.0 10181434
15:00+15sw334198 0.0 10161768
18:00+14sw224390 0.0 10161721
21:00+11wsw2255100 0.0 101714
19 april, mon
mon1900:00+10nnw2263100 0.0 101720
03:00+9ne336862 0.0 101646
06:00+7nne2277100 0.0 101612
09:00+12ene2263100 0.0 1016349
12:00+15e2343100 0.0 10141956
15:00+15se334794 0.1 10141575
18:00+14sse2356100 0.0 1013747
21:00+12ne5970100 0.1 1012300
20 april, tue
tue2000:00+11ne61170100 0.0 1010361
03:00+10ene51075100 0.2 1007442
06:00+9nne71393100 3.9 1003623
09:00+9nne101594100 15.9 999771
12:00+9ne101594100 8.6 996836
15:00+9nne61095100 14.1 995647
18:00+8nnw91491100 4.1 996963
21:00+7nw91487100 5.1 10011074
21 april, wed
wed2100:00+8nw81383100 0.1 1005951
03:00+7wnw71287100 0.1 1008652
06:00+6wsw5992100 0.0 1011440
09:00+7w4681100 0.0 1013687
12:00+8w4677100 0.1 1015742
15:00+11wsw5759100 0.3 10161595
18:00+12wnw455498 0.0 10161294
21:00+8wnw116698 0.0 101810